Hourly Weather Molepolole

Today, 1 October, Thursday

Time Temperature Precipitation Wind Pressure Humidity
00:00 +17°C° 0 mm 6 mps 661 mmHg 83%
01:00 +16°C° 0 mm 6 mps 660 mmHg 84%
02:00 +16°C° 0 mm 7 mps 660 mmHg 86%
03:00 +16°C° 0 mm 7 mps 660 mmHg 85%
04:00 +15°C° 0 mm 7 mps 660 mmHg 85%
05:00 +15°C° 0 mm 7 mps 660 mmHg 85%
06:00 +16°C° 0 mm 6 mps 660 mmHg 80%
07:00 +17°C° 0 mm 6 mps 661 mmHg 75%
08:00 +19°C° 0 mm 6 mps 661 mmHg 70%
09:00 +23°C° 0 mm 7 mps 662 mmHg 57%
10:00 +28°C° 0 mm 8 mps 662 mmHg 44%
11:00 +33°C° 0 mm 9 mps 663 mmHg 31%
12:00 +33°C° 0 mm 9 mps 662 mmHg 28%
13:00 +34°C° 0 mm 9 mps 661 mmHg 25%
14:00 +35°C° 0 mm 8 mps 660 mmHg 21%
15:00 +35°C° 0 mm 8 mps 660 mmHg 20%
16:00 +35°C° 0 mm 8 mps 660 mmHg 19%
17:00 +35°C° 0 mm 8 mps 660 mmHg 18%
18:00 +32°C° 0 mm 6 mps 660 mmHg 19%
19:00 +28°C° 0 mm 5 mps 660 mmHg 20%
20:00 +25°C° 0 mm 3 mps 660 mmHg 20%
21:00 +24°C° 0 mm 3 mps 660 mmHg 18%
22:00 +21°C° 0 mm 3 mps 660 mmHg 16%
23:00 +20°C° 0 mm 3 mps 660 mmHg 14%

Tomorrow, 2 October, Friday

Time Temperature Precipitation Wind Pressure Humidity
00:00 +19°C° 0 mm 3 mps 660 mmHg 18%
01:00 +18°C° 0 mm 3 mps 659 mmHg 21%
02:00 +17°C° 0 mm 3 mps 659 mmHg 25%
03:00 +17°C° 0 mm 2 mps 659 mmHg 28%
04:00 +16°C° 0 mm 2 mps 659 mmHg 31%
05:00 +16°C° 0 mm 2 mps 659 mmHg 34%
06:00 +18°C° 0.1 mm 3 mps 661 mmHg 40%
07:00 +20°C° 0.1 mm 4 mps 662 mmHg 46%
08:00 +23°C° 0.1 mm 6 mps 663 mmHg 51%
09:00 +27°C° 0.1 mm 7 mps 663 mmHg 43%
10:00 +30°C° 0.1 mm 7 mps 664 mmHg 34%
11:00 +34°C° 0.1 mm 8 mps 664 mmHg 25%
12:00 +35°C° 0 mm 8 mps 664 mmHg 20%
13:00 +37°C° 0 mm 9 mps 663 mmHg 15%
14:00 +38°C° 0 mm 9 mps 663 mmHg 9%
15:00 +38°C° 0 mm 9 mps 662 mmHg 9%
16:00 +37°C° 0 mm 8 mps 662 mmHg 8%
17:00 +35°C° 0 mm 8 mps 662 mmHg 7%
18:00 +32°C° 0 mm 7 mps 662 mmHg 9%
19:00 +28°C° 0 mm 6 mps 662 mmHg 10%
20:00 +23°C° 0 mm 5 mps 662 mmHg 12%
21:00 +21°C° 0 mm 5 mps 662 mmHg 13%
22:00 +19°C° 0 mm 4 mps 662 mmHg 15%
23:00 +17°C° 0 mm 4 mps 663 mmHg 17%

Day after tomorrow, 3 October, Saturday

Time Temperature Precipitation Wind Pressure Humidity
00:00 +17°C° 0 mm 4 mps 662 mmHg 17%
01:00 +15°C° 0 mm 4 mps 662 mmHg 17%
02:00 +14°C° 0 mm 4 mps 662 mmHg 17%
03:00 +14°C° 0 mm 4 mps 662 mmHg 18%
04:00 +13°C° 0 mm 3 mps 662 mmHg 19%
05:00 +13°C° 0 mm 3 mps 662 mmHg 20%
06:00 +16°C° 0 mm 3 mps 662 mmHg 31%
07:00 +18°C° 0 mm 3 mps 663 mmHg 43%
08:00 +20°C° 0 mm 3 mps 664 mmHg 54%
09:00 +23°C° 0 mm 2 mps 664 mmHg 47%
10:00 +26°C° 0 mm 2 mps 665 mmHg 40%
11:00 +29°C° 0 mm 1 mps 665 mmHg 33%
12:00 +31°C° 0 mm 3 mps 665 mmHg 25%
13:00 +34°C° 0 mm 4 mps 665 mmHg 17%
14:00 +38°C° 0 mm 6 mps 664 mmHg 9%
15:00 +36°C° 0 mm 6 mps 664 mmHg 8%
16:00 +36°C° 0 mm 6 mps 663 mmHg 6%
17:00 +35°C° 0 mm 7 mps 663 mmHg 5%
18:00 +32°C° 0 mm 6 mps 663 mmHg 6%
19:00 +27°C° 0 mm 6 mps 663 mmHg 7%
20:00 +23°C° 0 mm 5 mps 663 mmHg 8%
21:00 +21°C° 0 mm 5 mps 663 mmHg 9%
22:00 +20°C° 0 mm 4 mps 663 mmHg 10%
23:00 +19°C° 0 mm 4 mps 663 mmHg 11%

4 October, Sunday

Time Temperature Precipitation Wind Pressure Humidity
00:00 +17°C° 0 mm 3 mps 663 mmHg 13%
01:00 +16°C° 0 mm 3 mps 663 mmHg 15%
02:00 +14°C° 0 mm 3 mps 662 mmHg 17%
03:00 +14°C° 0 mm 3 mps 662 mmHg 18%
04:00 +13°C° 0 mm 3 mps 663 mmHg 19%
05:00 +14°C° 0 mm 2 mps 663 mmHg 19%
06:00 +16°C° 0 mm 3 mps 663 mmHg 17%
07:00 +19°C° 0 mm 3 mps 664 mmHg 14%
08:00 +21°C° 0 mm 3 mps 665 mmHg 12%
09:00 +25°C° 0 mm 2 mps 666 mmHg 10%
10:00 +28°C° 0 mm 2 mps 666 mmHg 9%
11:00 +31°C° 0 mm 2 mps 666 mmHg 8%
12:00 +34°C° 0 mm 2 mps 666 mmHg 7%
13:00 +35°C° 0 mm 2 mps 666 mmHg 6%
14:00 +37°C° 0 mm 2 mps 665 mmHg 5%
15:00 +37°C° 0 mm 2 mps 665 mmHg 4%
16:00 +37°C° 0 mm 2 mps 664 mmHg 4%
17:00 +37°C° 0 mm 2 mps 664 mmHg 3%
18:00 +32°C° 0 mm 2 mps 664 mmHg 4%
19:00 +28°C° 0 mm 2 mps 663 mmHg 6%
20:00 +25°C° 0 mm 2 mps 663 mmHg 7%
21:00 +24°C° 0 mm 3 mps 663 mmHg 18%
22:00 +22°C° 0 mm 4 mps 664 mmHg 28%
23:00 +21°C° 0 mm 5 mps 664 mmHg 39%

5 October, Monday

Time Temperature Precipitation Wind Pressure Humidity
00:00 +20°C° 0 mm 5 mps 664 mmHg 51%
01:00 +19°C° 0 mm 6 mps 664 mmHg 63%
02:00 +17°C° 0 mm 6 mps 664 mmHg 76%
03:00 +17°C° 0 mm 7 mps 664 mmHg 75%
04:00 +16°C° 0 mm 8 mps 664 mmHg 75%
05:00 +16°C° 0 mm 8 mps 665 mmHg 75%
06:00 +16°C° 0 mm 8 mps 665 mmHg 73%
07:00 +16°C° 0 mm 8 mps 665 mmHg 71%
08:00 +17°C° 0 mm 8 mps 666 mmHg 69%
09:00 +20°C° 0 mm 8 mps 666 mmHg 61%
10:00 +22°C° 0 mm 8 mps 666 mmHg 52%
11:00 +24°C° 0 mm 7 mps 666 mmHg 44%
12:00 +27°C° 0 mm 7 mps 666 mmHg 39%
13:00 +29°C° 0 mm 6 mps 666 mmHg 34%
14:00 +30°C° 0 mm 6 mps 666 mmHg 30%
15:00 +30°C° 0 mm 5 mps 665 mmHg 30%
16:00 +30°C° 0 mm 5 mps 665 mmHg 31%
17:00 +30°C° 0 mm 5 mps 664 mmHg 31%
18:00 +28°C° 0.2 mm 4 mps 665 mmHg 37%
19:00 +26°C° 0.2 mm 3 mps 665 mmHg 43%
20:00 +24°C° 0.2 mm 3 mps 665 mmHg 48%
21:00 +22°C° 0.4 mm 3 mps 666 mmHg 54%
22:00 +21°C° 0.4 mm 4 mps 666 mmHg 61%
23:00 +20°C° 0.4 mm 5 mps 667 mmHg 67%

6 October, Tuesday

Time Temperature Precipitation Wind Pressure Humidity
00:00 +19°C° 0 mm 4 mps 666 mmHg 68%
01:00 +18°C° 0 mm 4 mps 666 mmHg 69%
02:00 +18°C° 0 mm 3 mps 665 mmHg 70%
03:00 +17°C° 0 mm 4 mps 665 mmHg 72%
04:00 +15°C° 0 mm 4 mps 665 mmHg 75%
05:00 +15°C° 0 mm 4 mps 665 mmHg 77%
06:00 +15°C° 0 mm 5 mps 666 mmHg 73%
07:00 +16°C° 0 mm 5 mps 666 mmHg 70%
08:00 +17°C° 0 mm 6 mps 667 mmHg 66%
09:00 +21°C° 0 mm 5 mps 667 mmHg 57%
10:00 +23°C° 0 mm 5 mps 667 mmHg 47%
11:00 +27°C° 0 mm 4 mps 667 mmHg 37%
12:00 +28°C° 0 mm 4 mps 667 mmHg 31%
13:00 +29°C° 0 mm 4 mps 667 mmHg 25%
14:00 +32°C° 0 mm 5 mps 666 mmHg 19%
15:00 +32°C° 0 mm 5 mps 666 mmHg 19%
16:00 +30°C° 0 mm 5 mps 666 mmHg 19%
17:00 +30°C° 0 mm 5 mps 665 mmHg 19%
18:00 +28°C° 0 mm 4 mps 665 mmHg 22%
19:00 +26°C° 0 mm 4 mps 665 mmHg 26%
20:00 +23°C° 0 mm 4 mps 665 mmHg 29%
21:00 +22°C° 0 mm 3 mps 665 mmHg 30%
22:00 +21°C° 0 mm 2 mps 665 mmHg 32%
23:00 +20°C° 0 mm 2 mps 665 mmHg 33%
Show more

We Need Your Consent

Meteoprog and our Service Providers may store and access personal data such as cookies, device identifiers or other similar technologies on your device and process such data to personalise content and ads, as well as provide social media features and to analyse the traffic.

  • Store and/or access information on your device

    Cookies, device identifiers or other information can be stored or accessed on your device for the purposes indicated above.

  • Personalised ads and content, ad and content measurement, audience insights, and products development

    Ads and content can be personalised based on a profile. More data can be added to better personalise ads and content. Ad and content performance can be measured. Insights about the audience who saw the ads and content can be derived. Such data can be used to develop or improve user’s experience, systems and software.

By clicking ‘I Agree’ you will allow the use of indicated cookies, device identifiers, web beacons or other similar technologies. Your settings can be changed in the browser on your device.

For certain purposes, legitimate interests may be relied on, rather than consent. You can read more about this in our Privacy and Cookie Policy.